Regional Weather Roundup
Issued by NWS

Home | Current Version | Previous Version | Graphics & Text | Print | Product List | Glossary On
Versions: 1 2 3 4 5 6 7 8 9 10 11 12 13 14 15 16 17 18 19 20 21 22 23 24 25 26 27 28 29 30 31 32 33 34 35 36 37 38 39 40 41 42 43 44 45 46 47 48 49 50
000
ASUS43 KLOT 012306
RWRIL

ILLINOIS REGIONAL WEATHER ROUNDUP
NATIONAL WEATHER SERVICE CHICAGO/ROMEOVILLE IL
600 PM CDT WED OCT 01 2014

NOTE: "FAIR" INDICATES FEW OR NO CLOUDS BELOW 12,000 FEET WITH NO
SIGNIFICANT WEATHER AND/OR OBSTRUCTIONS TO VISIBILITY.

* THESE STATIONS ARE NOT UNDER NWS QUALITY CONTROL. THEY ALSO MAY NOT
  REPORT WEATHER SUCH AS PRECIPITATION OR FOG.

ILZ001-002-007-009-015-016-024-020000-
NORTHWEST ILLINOIS

CITY           SKY/WX    TMP DP  RH WIND       PRES   REMARKS
MOLINE         MOCLDY    70  60  70 SW3       29.82R
SAVANNA*       CLOUDY    74  58  57 SW6       29.83S
$$

ILZ003-004-008-010-011-017-018-020000-
NORTH CENTRAL ILLINOIS

CITY           SKY/WX    TMP DP  RH WIND       PRES   REMARKS
ROCKFORD       CLOUDY    71  55  56 SE7       29.86S
FREEPORT*      CLOUDY    69  56  63 E3        29.86R
ROCHELLE*      MOCLDY    71  56  57 SE7       29.85S
DE KALB*       CLOUDY    68  55  62 E8        29.88R
PERU*          CLOUDY    76  58  52 SE7       29.84S
$$

ILZ005-006-012>014-019>023-020000-
NORTHEAST ILLINOIS

CITY           SKY/WX    TMP DP  RH WIND       PRES   REMARKS
CHICAGO-OHARE  MOCLDY    67  53  61 E13       29.89S
CHICAGO-MIDWAY MOCLDY    71  55  56 SE10      29.89S
AURORA         CLOUDY    71  55  56 E10       29.87R
LANSING*       PTCLDY    67  54  62 SE8       29.91R
JOLIET*        MOCLDY    70  55  59 E9        29.88R
WAUKEGAN       PTCLDY    60  54  80 E7        29.91
DUPAGE AIRPORT MOCLDY    69  55  60 SE9       29.88S
WHEELING       PTCLDY    65  53  65 E5        29.92R
MORRIS*        CLOUDY    73  59  62 SE8       29.85S
ROMEOVILLE*    MOCLDY    69  54  58 SE9       29.89R
NORTHERLY ISL    N/A     64  58  80 SE6         N/A
$$

LMZ740>746-020000-
SOUTHERN LAKE MICHIGAN

STATION/POSITION SKY/WX   TEMP    WIND        PRES    VSBY  WAVE
                          AIR SEA DIR/SP/G                  HT/PER
                          (F)     (DEG/KT/KT) (MB)    (MI)  (FT/S)
SOUTHERN BUOY              61 61  100/ 12/ 14 1013.3F         2/ 3
WAUKEGAN HARBOR            60     110/ 10/ 11   N/A
HARRISON CRIB              65     130/ 15/ 16   N/A
CALUMET HARBOR             69     140/  6/ 12 1011.5R
MICHIGAN CITY              67     110/ 10/ 14   N/A
$$

ILZ025>027-034>036-040-047-049-050-058-095>099-020000-
WEST-CENTRAL ILLINOIS

CITY           SKY/WX    TMP DP  RH WIND       PRES   REMARKS
QUINCY         TSTM      65  64  97 E6        29.84S FOG
GALESBURG*     LGT RAIN  65  62  89 S8        29.83S
MACOMB*        TSTM      64  64  98 S8        29.88S
JACKSONVILLE*  LGT RAIN  69  66  90 E8        29.82F
PITTSFIELD*    CLOUDY    68  64  87 N5        29.85R
$$

ILZ028>032-037-038-041>044-048-051>054-059>061-020000-
CENTRAL ILLINOIS

CITY           SKY/WX    TMP DP  RH WIND       PRES   REMARKS
PONTIAC        CLOUDY    79  57  47 SE7       29.86R HX  80
BLOOMINGTON    CLEAR     75  60  59 S7          N/A
DECATUR        MOCLDY    78  60  53 SE9       29.86S
PEORIA         LGT RAIN  71  65  81 W5        29.86R
LACON*         CLOUDY    73  61  65 CALM      29.83R
LINCOLN*       CLOUDY    76  60  57 CALM      29.81S
SPRINGFIELD    LGT RAIN  79  63  57 E6        29.82F HX  80
TAYLORVILLE    MOCLDY    77  61  57 SE8       29.84S
$$

ILZ033-039-045-046-055>057-062-063-020000-
EAST-CENTRAL ILLINOIS

CITY           SKY/WX    TMP DP  RH WIND       PRES   REMARKS
CHAMPAIGN      CLEAR     79  55  44 SE8       29.88S
DANVILLE*      PTCLDY    75  58  55 SE7       29.88R HAZE
RANTOUL*       PTCLDY    79  53  39 S5        29.89R
MATTOON        PTCLDY    75  57  53 SE5       29.87S
PARIS*         PTCLDY    78  58  49 SE3       29.90S
$$

ILZ079-100>102-020000-
SOUTHWEST ILLINOIS

CITY           SKY/WX    TMP DP  RH WIND       PRES   REMARKS
BELLEVILLE     PTCLDY    82  65  56 E7        29.80F HX  84
CAHOKIA*       PTCLDY    84  63  49 S9        29.80R HX  85
SPARTA*        CLEAR     82  63  51 S10       29.83F HX  83
$$

ILZ064>066-069>071-074>076-080>082-084>086-088>090-092>094-020000-
SOUTH-CENTRAL ILLINOIS

CITY           SKY/WX    TMP DP  RH WIND       PRES   REMARKS
CARBONDALE     CLEAR     81  62  52 S8        29.86S HX  82
CAIRO*         PTCLDY    82  63  52 SE5       29.87S HX  83
EFFINGHAM*     CLEAR     78  58  49 SE5       29.86F
MARION         CLEAR     84  63  48 S8        29.87F HX  85
CENTRALIA*     CLEAR     81  60  49 SE8       29.85S HX  81
SALEM*         CLEAR     81  65  57 SE3       29.85F HX  83
METROPOLIS*    CLEAR     84  62  47 S3        29.87S HX  84
$$

ILZ067-068-072-073-078-083-087-091-020000-
SOUTHEAST ILLINOIS

CITY           SKY/WX    TMP DP  RH WIND       PRES   REMARKS
LAWRENCEVILLE  CLEAR     81  57  43 S7        29.90R HX  81
FLORA*         CLEAR     80  58  46 SE6       29.87F HX  81
FAIRFIELD*     CLEAR     82  63  51 S3        29.87F HX  83
HARRISBURG*    CLEAR     83  59  43 S6        29.89S HX  83
ROBINSON*      CLEAR     78  61  54 S6        29.90R HX  80
CARMI*         PTCLDY    82  61  47 SE5       29.88R HX  83
$$

ABBREVIATIONS USED IN REMARKS
   TC - TEMPERATURE IN CELSIUS
  WCI - WIND CHILL INDEX
   HX - HEAT INDEX
  VSB - VISIBILITY
$$




USA.gov is the U.S. government's official web portal to all federal, state and local government web resources and services.